{"data":{"norad_id":57603,"epoch":"2026-09-20T22:08:06.548928Z","epoch_age_seconds":91493,"freshness":"FRESH","line1":"1 57603U 23119B   26263.92229802  .00015632  00000+0  84775-3 0  9990","line2":"2 57603  42.9982  87.2091 0011880 252.9919 106.9626 15.14304144172602","mean_motion":15.14304144,"eccentricity":0.001188,"inclination_deg":42.9982,"raan_deg":87.2091,"arg_perigee_deg":252.9919,"mean_anomaly_deg":106.9626,"bstar":0.00084775,"rev_number":17260,"period_min":95.093182284787,"perigee_km":514.89326827847,"apogee_km":531.29058821198,"semimajor_km":6901.2289282452,"source":"CELESTRAK","updated_at":"2026-09-21T09:00:33.639922Z"}}